When you browse on this site, cookies collect data to enhance your experience and personalize the content and advertising you see.
Visit our Privacy Policy to learn more. By continuing to use the site, you agree to this use of cookies and data.
  • In Austria
  • List of Countries
  • For 7 days
  • Water Temperature
  • Satellite Maps
  • Weather Map
  • News
  • Weather Widgets
  • user-avatar
    Login

    Hourly Weather Santarem

    Today, 24 March, Sunday

    Time Temperature Precipitation Wind Pressure Humidity
    00:00 +13°C° 0 mm 3 mps 762 mmHg 56%
    01:00 +12°C° 0 mm 3 mps 762 mmHg 57%
    02:00 +12°C° 0 mm 3 mps 762 mmHg 58%
    03:00 +12°C° 0 mm 3 mps 762 mmHg 60%
    04:00 +11°C° 0 mm 3 mps 762 mmHg 62%
    05:00 +11°C° 0 mm 3 mps 763 mmHg 65%
    06:00 +13°C° 0 mm 4 mps 763 mmHg 61%
    07:00 +15°C° 0 mm 5 mps 763 mmHg 56%
    08:00 +16°C° 0 mm 6 mps 763 mmHg 52%
    09:00 +19°C° 0 mm 6 mps 763 mmHg 47%
    10:00 +21°C° 0 mm 6 mps 763 mmHg 41%
    11:00 +22°C° 0 mm 6 mps 763 mmHg 37%
    12:00 +23°C° 0 mm 6 mps 762 mmHg 35%
    13:00 +23°C° 0 mm 6 mps 762 mmHg 34%
    14:00 +25°C° 0 mm 5 mps 762 mmHg 33%
    15:00 +23°C° 0 mm 4 mps 762 mmHg 37%
    16:00 +22°C° 0 mm 3 mps 762 mmHg 41%
    17:00 +21°C° 0 mm 2 mps 762 mmHg 46%
    18:00 +19°C° 0 mm 2 mps 762 mmHg 50%
    19:00 +17°C° 0 mm 2 mps 762 mmHg 55%
    20:00 +15°C° 0 mm 2 mps 762 mmHg 59%
    21:00 +15°C° 0 mm 2 mps 762 mmHg 59%
    22:00 +14°C° 0 mm 2 mps 762 mmHg 59%
    23:00 +14°C° 0 mm 2 mps 762 mmHg 59%

    Tomorrow, 25 March, Monday

    Time Temperature Precipitation Wind Pressure Humidity
    00:00 +13°C° 0 mm 2 mps 762 mmHg 59%
    01:00 +13°C° 0 mm 2 mps 762 mmHg 59%
    02:00 +12°C° 0 mm 2 mps 762 mmHg 59%
    03:00 +12°C° 0 mm 2 mps 762 mmHg 59%
    04:00 +12°C° 0 mm 2 mps 762 mmHg 59%
    05:00 +10°C° 0 mm 2 mps 762 mmHg 59%
    06:00 +12°C° 0 mm 3 mps 762 mmHg 54%
    07:00 +15°C° 0 mm 4 mps 762 mmHg 49%
    08:00 +17°C° 0 mm 5 mps 762 mmHg 43%
    09:00 +20°C° 0 mm 5 mps 762 mmHg 37%
    10:00 +22°C° 0 mm 6 mps 761 mmHg 31%
    11:00 +26°C° 0 mm 7 mps 761 mmHg 25%
    12:00 +26°C° 0 mm 7 mps 760 mmHg 25%
    13:00 +27°C° 0 mm 6 mps 760 mmHg 24%
    14:00 +27°C° 0 mm 6 mps 759 mmHg 23%
    15:00 +26°C° 0 mm 5 mps 759 mmHg 28%
    16:00 +25°C° 0 mm 4 mps 759 mmHg 32%
    17:00 +24°C° 0 mm 3 mps 758 mmHg 36%
    18:00 +21°C° 0 mm 3 mps 759 mmHg 40%
    19:00 +19°C° 0 mm 3 mps 759 mmHg 43%
    20:00 +17°C° 0 mm 2 mps 759 mmHg 46%
    21:00 +16°C° 0 mm 3 mps 759 mmHg 44%
    22:00 +15°C° 0 mm 4 mps 759 mmHg 41%
    23:00 +15°C° 0 mm 4 mps 759 mmHg 39%

    Day after tomorrow, 26 March, Tuesday

    Time Temperature Precipitation Wind Pressure Humidity
    00:00 +14°C° 0 mm 4 mps 759 mmHg 39%
    01:00 +14°C° 0 mm 5 mps 758 mmHg 40%
    02:00 +14°C° 0 mm 5 mps 758 mmHg 40%
    03:00 +13°C° 0 mm 5 mps 758 mmHg 40%
    04:00 +13°C° 0 mm 5 mps 758 mmHg 40%
    05:00 +13°C° 0 mm 6 mps 758 mmHg 40%
    06:00 +14°C° 0 mm 6 mps 758 mmHg 39%
    07:00 +15°C° 0 mm 7 mps 758 mmHg 37%
    08:00 +16°C° 0 mm 7 mps 758 mmHg 36%
    09:00 +18°C° 0 mm 7 mps 758 mmHg 34%
    10:00 +21°C° 0 mm 7 mps 758 mmHg 32%
    11:00 +23°C° 0 mm 7 mps 758 mmHg 29%
    12:00 +24°C° 0 mm 7 mps 757 mmHg 28%
    13:00 +26°C° 0 mm 7 mps 757 mmHg 27%
    14:00 +26°C° 0 mm 7 mps 756 mmHg 26%
    15:00 +24°C° 0 mm 6 mps 756 mmHg 30%
    16:00 +23°C° 0 mm 5 mps 756 mmHg 33%
    17:00 +23°C° 0 mm 4 mps 756 mmHg 37%
    18:00 +21°C° 0 mm 5 mps 757 mmHg 37%
    19:00 +20°C° 0 mm 5 mps 757 mmHg 36%
    20:00 +19°C° 0 mm 5 mps 757 mmHg 36%
    21:00 +17°C° 0 mm 5 mps 758 mmHg 37%
    22:00 +17°C° 0 mm 5 mps 758 mmHg 39%
    23:00 +16°C° 0 mm 5 mps 759 mmHg 40%

    27 March, Wednesday

    Time Temperature Precipitation Wind Pressure Humidity
    00:00 +16°C° 0 mm 5 mps 759 mmHg 41%
    01:00 +15°C° 0 mm 6 mps 760 mmHg 42%
    02:00 +14°C° 0 mm 6 mps 760 mmHg 42%
    03:00 +13°C° 0 mm 6 mps 760 mmHg 42%
    04:00 +13°C° 0 mm 6 mps 761 mmHg 41%
    05:00 +11°C° 0 mm 6 mps 761 mmHg 41%
    06:00 +12°C° 0 mm 7 mps 761 mmHg 40%
    07:00 +13°C° 0 mm 8 mps 762 mmHg 40%
    08:00 +13°C° 0 mm 8 mps 762 mmHg 39%
    09:00 +16°C° 0 mm 8 mps 762 mmHg 37%
    10:00 +18°C° 0 mm 7 mps 763 mmHg 34%
    11:00 +21°C° 0 mm 7 mps 763 mmHg 31%
    12:00 +21°C° 0 mm 7 mps 762 mmHg 29%
    13:00 +22°C° 0 mm 6 mps 762 mmHg 28%
    14:00 +23°C° 0 mm 6 mps 762 mmHg 27%
    15:00 +22°C° 0 mm 5 mps 762 mmHg 30%
    16:00 +21°C° 0 mm 4 mps 762 mmHg 34%
    17:00 +20°C° 0 mm 3 mps 762 mmHg 37%
    18:00 +18°C° 0 mm 3 mps 762 mmHg 40%
    19:00 +16°C° 0 mm 3 mps 763 mmHg 44%
    20:00 +13°C° 0 mm 3 mps 763 mmHg 47%
    21:00 +12°C° 0 mm 3 mps 764 mmHg 49%
    22:00 +12°C° 0 mm 3 mps 764 mmHg 50%
    23:00 +11°C° 0 mm 3 mps 764 mmHg 52%

    28 March, Thursday

    Time Temperature Precipitation Wind Pressure Humidity
    00:00 +10°C° 0 mm 2 mps 764 mmHg 54%
    01:00 +9°C° 0 mm 2 mps 764 mmHg 55%
    02:00 +9°C° 0 mm 2 mps 764 mmHg 57%
    03:00 +8°C° 0 mm 2 mps 764 mmHg 58%
    04:00 +8°C° 0 mm 2 mps 764 mmHg 60%
    05:00 +8°C° 0 mm 2 mps 765 mmHg 61%
    06:00 +10°C° 0 mm 3 mps 765 mmHg 53%
    07:00 +12°C° 0 mm 4 mps 765 mmHg 44%
    08:00 +14°C° 0 mm 4 mps 766 mmHg 35%
    09:00 +16°C° 0 mm 5 mps 766 mmHg 31%
    10:00 +19°C° 0 mm 5 mps 765 mmHg 27%
    11:00 +21°C° 0 mm 5 mps 765 mmHg 23%
    12:00 +22°C° 0 mm 5 mps 765 mmHg 22%
    13:00 +23°C° 0 mm 4 mps 764 mmHg 21%
    14:00 +23°C° 0 mm 4 mps 764 mmHg 20%
    15:00 +22°C° 0 mm 3 mps 764 mmHg 25%
    16:00 +21°C° 0 mm 3 mps 764 mmHg 30%
    17:00 +21°C° 0 mm 2 mps 764 mmHg 35%
    18:00 +18°C° 0 mm 2 mps 764 mmHg 39%
    19:00 +16°C° 0 mm 2 mps 764 mmHg 42%
    20:00 +14°C° 0 mm 2 mps 765 mmHg 46%
    21:00 +13°C° 0 mm 2 mps 765 mmHg 47%
    22:00 +13°C° 0 mm 2 mps 765 mmHg 47%
    23:00 +12°C° 0 mm 2 mps 765 mmHg 48%

    29 March, Friday

    Time Temperature Precipitation Wind Pressure Humidity
    00:00 +12°C° 0 mm 2 mps 765 mmHg 47%
    01:00 +10°C° 0 mm 2 mps 765 mmHg 47%
    02:00 +10°C° 0 mm 2 mps 764 mmHg 46%
    03:00 +10°C° 0 mm 2 mps 765 mmHg 48%
    04:00 +9°C° 0 mm 2 mps 765 mmHg 51%
    05:00 +9°C° 0 mm 3 mps 765 mmHg 53%
    06:00 +11°C° 0 mm 3 mps 765 mmHg 48%
    07:00 +13°C° 0 mm 4 mps 766 mmHg 42%
    08:00 +15°C° 0 mm 4 mps 766 mmHg 37%
    09:00 +17°C° 0 mm 5 mps 766 mmHg 33%
    10:00 +20°C° 0 mm 5 mps 766 mmHg 29%
    11:00 +22°C° 0 mm 5 mps 765 mmHg 25%
    12:00 +22°C° 0 mm 5 mps 765 mmHg 25%
    13:00 +23°C° 0 mm 5 mps 764 mmHg 25%
    14:00 +25°C° 0 mm 5 mps 764 mmHg 25%
    15:00 +23°C° 0 mm 4 mps 764 mmHg 28%
    16:00 +22°C° 0 mm 3 mps 764 mmHg 32%
    17:00 +21°C° 0 mm 3 mps 764 mmHg 36%
    18:00 +19°C° 0 mm 2 mps 764 mmHg 40%
    19:00 +16°C° 0 mm 2 mps 764 mmHg 45%
    20:00 +14°C° 0 mm 2 mps 765 mmHg 49%
    21:00 +13°C° 0 mm 2 mps 765 mmHg 50%
    22:00 +13°C° 0 mm 2 mps 765 mmHg 50%
    23:00 +11°C° 0 mm 3 mps 765 mmHg 51%
    Show more